QPF
0.00 0.00 0.00 0.00 0.00 0.00 0.00 0.00 0.00 0.00 0.00 0.00 0.01 0.01 0.00 0.00 0.00 0.00 0.00 0.00 0.00 0.00 0.00 0.00 0.00 0.00 0.00 0.00 0.01 0.01 0.01 0.01 0.01 0.01 0.01 0.01 0.00 0.00 0.00 0.00 0.00 0.00 0.00 0.00
0.00 0.00 0.00 0.00 0.00 0.00 0.00 0.00 0.00 0.00 0.00 0.00 0.00 0.00 0.00 0.00 0.00 0.00 0.00 0.00 0.00 0.00 0.00 0.00 0.00 0.00 0.00 0.00 0.00 0.00 0.01 0.01 0.01 0.01 0.01 0.01 0.01 0.00 0.00 0.00 0.00 0.00 0.00 0.00
0.00 0.00 0.00 0.00 0.00 0.00 0.00 0.00 0.00 0.00 0.00 0.00 0.00 0.00 0.00 0.00 0.00 0.00 0.00 0.00 0.00 0.00 0.00 0.00 0.00 0.00 0.00 0.00 0.00 0.00 0.00 0.01 0.01 0.01 0.01 0.01 0.01 0.00 0.00 0.00 0.00 0.00 0.00 0.00
0.00 0.00 0.00 0.00 0.00 0.00 0.00 0.00 0.00 0.00 0.00 0.00 0.00 0.01 0.00 0.00 0.00 0.00 0.00 0.00 0.00 0.00 0.00 0.00 0.00 0.00 0.00 0.00 0.00 0.00 0.00 0.00 0.01 0.01 0.01 0.01 0.01 0.01 0.00 0.00 0.00 0.00 0.00 0.00
0.00 0.00 0.00 0.00 0.00 0.00 0.00 0.00 0.00 0.00 0.00 0.00 0.00 0.00 0.00 0.00 0.00 0.00 0.00 0.00 0.00 0.00 0.00 0.00 0.00 0.00 0.00 0.00 0.00 0.00 0.00 0.00 0.00 0.00 0.00 0.01 0.01 0.01 0.00 0.00 0.00 0.00 0.00 0.00
0.01 0.00 0.00 0.00 0.00 0.00 0.00 0.00 0.00 0.00 0.00 0.00 0.00 0.00 0.00 0.00 0.00 0.00 0.00 0.00 0.00 0.00 0.00 0.00 0.00 0.00 0.00 0.00 0.00 0.00 0.00 0.00 0.00 0.00 0.00 0.01 0.01 0.01 0.00 0.00 0.00 0.00 0.00 0.00
0.01 0.00 0.00 0.00 0.00 0.00 0.00 0.00 0.00 0.00 0.00 0.00 0.00 0.00 0.00 0.00 0.00 0.00 0.00 0.00 0.00 0.00 0.00 0.00 0.00 0.00 0.00 0.00 0.00 0.00 0.00 0.00 0.00 0.01 0.01 0.01 0.01 0.01 0.00 0.00 0.00 0.00 0.00 0.00
0.00 0.00 0.00 0.00 0.00 0.00 0.00 0.00 0.00 0.00 0.00 0.00 0.00 0.00 0.00 0.00 0.00 0.00 0.00 0.00 0.00 0.00 0.00 0.00 0.00 0.00 0.00 0.00 0.00 0.00 0.00 0.00 0.00 0.00 0.00 0.01 0.01 0.00 0.00 0.00 0.00 0.00 0.00 0.00
0.00 0.00 0.00 0.00 0.00 0.00 0.00 0.00 0.00 0.00 0.00 0.00 0.00 0.00 0.00 0.00 0.00 0.00 0.00 0.00 0.00 0.00 0.00 0.00 0.00 0.00 0.00 0.00 0.00 0.00 0.00 0.00 0.00 0.00 0.00 0.00 0.01 0.00 0.00 0.00 0.00 0.00 0.00 0.00
0.00 0.00 0.00 0.00 0.00 0.00 0.00 0.00 0.00 0.00 0.00 0.00 0.00 0.00 0.00 0.00 0.00 0.00 0.00 0.00 0.00 0.00 0.00 0.00 0.00 0.00 0.00 0.00 0.00 0.00 0.00 0.00 0.00 0.00 0.00 0.00 0.00 0.00 0.00 0.00 0.00 0.00 0.00 0.00
0.00 0.00 0.00 0.00 0.00 0.00 0.00 0.00 0.00 0.00 0.00 0.00 0.00 0.00 0.00 0.00 0.00 0.00 0.00 0.00 0.00 0.00 0.00 0.00 0.00 0.00 0.00 0.00 0.00 0.00 0.00 0.00 0.00 0.00 0.00 0.00 0.00 0.00 0.01 0.00 0.00 0.00 0.00 0.00
0.00 0.00 0.00 0.00 0.00 0.00 0.00 0.00 0.00 0.00 0.00 0.00 0.00 0.00 0.00 0.00 0.00 0.00 0.00 0.00 0.00 0.00 0.00 0.00 0.00 0.00 0.00 0.00 0.00 0.00 0.00 0.00 0.00 0.00 0.00 0.00 0.00 0.01 0.01 0.01 0.00 0.00 0.00 0.00
0.00 0.00 0.00 0.00 0.00 0.00 0.00 0.00 0.00 0.00 0.00 0.00 0.00 0.00 0.00 0.00 0.00 0.00 0.00 0.00 0.00 0.00 0.00 0.00 0.00 0.00 0.00 0.00 0.00 0.00 0.00 0.00 0.00 0.00 0.00 0.00 0.00 0.00 0.01 0.01 0.00 0.00 0.00 0.00
0.00 0.00 0.00 0.00 0.00 0.00 0.00 0.00 0.00 0.00 0.00 0.00 0.00 0.00 0.00 0.00 0.00 0.00 0.00 0.00 0.00 0.00 0.00 0.00 0.00 0.00 0.00 0.00 0.00 0.00 0.00 0.00 0.00 0.00 0.00 0.00 0.00 0.00 0.00 0.01 0.01 0.00 0.00 0.00
0.00 0.00 0.00 0.00 0.00 0.00 0.00 0.00 0.00 0.00 0.00 0.00 0.00 0.00 0.00 0.00 0.00 0.00 0.00 0.00 0.00 0.00 0.00 0.00 0.00 0.00 0.00 0.00 0.00 0.00 0.00 0.00 0.00 0.00 0.00 0.00 0.00 0.00 0.00 0.00 0.00 0.00 0.00 0.00
0.00 0.00 0.00 0.00 0.00 0.00 0.00 0.00 0.00 0.00 0.00 0.00 0.00 0.00 0.00 0.00 0.00 0.00 0.00 0.00 0.00 0.00 0.00 0.00 0.00 0.00 0.00 0.00 0.00 0.00 0.00 0.00 0.00 0.00 0.00 0.00 0.00 0.00 0.00 0.00 0.00 0.00 0.00 0.00
0.00 0.00 0.00 0.00 0.00 0.00 0.00 0.00 0.00 0.00 0.00 0.00 0.00 0.00 0.00 0.00 0.00 0.00 0.00 0.00 0.00 0.00 0.00 0.00 0.00 0.00 0.00 0.00 0.00 0.00 0.00 0.00 0.00 0.00 0.00 0.00 0.00 0.00 0.00 0.00 0.00 0.00 0.00 0.00
0.00 0.00 0.00 0.00 0.00 0.00 0.00 0.00 0.00 0.00 0.00 0.00 0.00 0.00 0.00 0.00 0.00 0.00 0.00 0.00 0.00 0.00 0.00 0.00 0.00 0.00 0.00 0.00 0.00 0.00 0.00 0.00 0.00 0.00 0.00 0.00 0.00 0.00 0.00 0.00 0.00 0.00 0.00 0.00
0.00 0.00 0.00 0.00 0.00 0.00 0.00 0.00 0.00 0.00 0.00 0.00 0.00 0.00 0.00 0.00 0.00 0.00 0.00 0.00 0.00 0.00 0.00 0.00 0.00 0.00 0.00 0.00 0.00 0.00 0.00 0.00 0.00 0.00 0.00 0.00 0.00 0.00 0.00 0.00 0.00 0.00 0.00 0.00
0.00 0.00 0.00 0.00 0.00 0.00 0.00 0.00 0.00 0.00 0.00 0.00 0.00 0.00 0.00 0.00 0.00 0.00 0.00 0.00 0.00 0.00 0.00 0.00 0.00 0.00 0.00 0.00 0.00 0.00 0.00 0.00 0.00 0.00 0.00 0.00 0.00 0.00 0.00 0.00 0.00 0.00 0.00 0.00
0.00 0.00 0.00 0.00 0.00 0.00 0.00 0.00 0.00 0.00 0.00 0.00 0.00 0.00 0.00 0.00 0.00 0.00 0.00 0.00 0.00 0.00 0.00 0.00 0.00 0.00 0.00 0.00 0.00 0.00 0.00 0.00 0.00 0.00 0.00 0.00 0.00 0.00 0.00 0.00 0.00 0.00 0.00 0.00
0.00 0.00 0.00 0.00 0.00 0.00 0.00 0.00 0.00 0.00 0.00 0.00 0.00 0.00 0.00 0.00 0.00 0.00 0.00 0.00 0.00 0.00 0.00 0.00 0.00 0.00 0.00 0.00 0.00 0.00 0.00 0.00 0.00 0.00 0.00 0.00 0.00 0.00 0.00 0.00 0.00 0.00 0.00 0.00
0.01 0.01 0.01 0.00 0.00 0.00 0.00 0.00 0.00 0.00 0.00 0.00 0.00 0.00 0.00 0.00 0.00 0.00 0.00 0.00 0.00 0.00 0.00 0.00 0.00 0.00 0.00 0.00 0.00 0.00 0.00 0.00 0.00 0.00 0.00 0.00 0.00 0.00 0.00 0.01 0.00 0.00 0.00 0.00
0.02 0.01 0.01 0.01 0.01 0.01 0.01 0.01 0.00 0.00 0.00 0.00 0.00 0.00 0.00 0.00 0.00 0.00 0.00 0.00 0.00 0.00 0.00 0.00 0.00 0.00 0.00 0.00 0.00 0.00 0.00 0.00 0.00 0.00 0.00 0.00 0.00 0.00 0.01 0.00 0.00 0.00 0.00 0.01
0.02 0.02 0.02 0.01 0.01 0.01 0.01 0.00 0.00 0.00 0.00 0.00 0.00 0.00 0.00 0.00 0.00 0.00 0.00 0.00 0.00 0.00 0.00 0.00 0.00 0.00 0.00 0.00 0.00 0.00 0.00 0.00 0.00 0.00 0.00 0.00 0.00 0.00 0.01 0.01 0.00 0.00 0.01 0.01
0.01 0.01 0.00 0.00 0.00 0.00 0.00 0.00 0.00 0.00 0.00 0.00 0.00 0.00 0.00 0.00 0.00 0.00 0.00 0.00 0.00 0.00 0.00 0.00 0.00 0.00 0.00 0.00 0.00 0.00 0.00 0.00 0.00 0.00 0.00 0.00 0.01 0.01 0.01 0.01 0.01 0.01 0.01 0.01
0.00 0.00 0.00 0.00 0.00 0.00 0.00 0.00 0.00 0.00 0.00 0.00 0.00 0.00 0.00 0.00 0.00 0.00 0.00 0.00 0.00 0.00 0.00 0.00 0.00 0.00 0.00 0.00 0.00 0.00 0.00 0.00 0.00 0.00 0.01 0.01 0.01 0.01 0.01 0.01 0.01 0.01 0.01 0.01
MSLP
1016.38 1016.77 1017.12 1017.40 1017.57 1017.61 1017.51 1017.27 1016.91 1016.45 1015.94 1015.43 1014.98 1014.64 1014.44 1014.41 1014.55 1014.84 1015.23 1015.70 1016.19 1016.65 1017.05 1017.39 1017.67 1017.89 1018.09 1018.29 1018.52 1018.77 1019.06 1019.36 1019.66 1019.92 1020.12 1020.24 1020.28 1020.23 1020.11 1019.93 1019.73 1019.53 1019.35 1019.20
1016.41 1016.64 1016.79 1016.83 1016.77 1016.61 1016.34 1016.01 1015.62 1015.22 1014.83 1014.50 1014.25 1014.13 1014.12 1014.25 1014.49 1014.83 1015.24 1015.69 1016.13 1016.55 1016.94 1017.29 1017.60 1017.89 1018.17 1018.45 1018.76 1019.08 1019.41 1019.74 1020.05 1020.32 1020.53 1020.66 1020.71 1020.69 1020.60 1020.47 1020.30 1020.13 1019.97 1019.82
1016.57 1016.63 1016.57 1016.39 1016.11 1015.75 1015.34 1014.91 1014.51 1014.15 1013.87 1013.69 1013.63 1013.68 1013.84 1014.09 1014.42 1014.80 1015.22 1015.64 1016.06 1016.46 1016.84 1017.21 1017.56 1017.91 1018.27 1018.63 1019.01 1019.39 1019.76 1020.11 1020.43 1020.70 1020.90 1021.05 1021.13 1021.15 1021.11 1021.04 1020.93 1020.81 1020.68 1020.55
1016.85 1016.74 1016.49 1016.12 1015.66 1015.13 1014.60 1014.09 1013.67 1013.34 1013.14 1013.08 1013.14 1013.32 1013.60 1013.94 1014.33 1014.73 1015.15 1015.56 1015.96 1016.35 1016.75 1017.14 1017.55 1017.96 1018.39 1018.82 1019.25 1019.67 1020.07 1020.42 1020.74 1021.00 1021.21 1021.37 1021.48 1021.55 1021.58 1021.58 1021.54 1021.48 1021.39 1021.29
1017.17 1016.92 1016.52 1016.00 1015.39 1014.75 1014.12 1013.57 1013.13 1012.82 1012.67 1012.68 1012.82 1013.08 1013.42 1013.81 1014.22 1014.64 1015.05 1015.46 1015.86 1016.26 1016.68 1017.11 1017.57 1018.04 1018.53 1019.01 1019.48 1019.92 1020.31 1020.67 1020.97 1021.22 1021.43 1021.60 1021.75 1021.87 1021.96 1022.03 1022.07 1022.07 1022.03 1021.95
1017.43 1017.07 1016.57 1015.95 1015.26 1014.55 1013.88 1013.29 1012.85 1012.55 1012.43 1012.47 1012.65 1012.94 1013.30 1013.71 1014.13 1014.55 1014.96 1015.37 1015.78 1016.21 1016.65 1017.13 1017.64 1018.16 1018.68 1019.20 1019.68 1020.12 1020.51 1020.84 1021.12 1021.36 1021.56 1021.75 1021.92 1022.08 1022.23 1022.36 1022.46 1022.51 1022.51 1022.45
1017.52 1017.10 1016.54 1015.88 1015.16 1014.44 1013.76 1013.19 1012.75 1012.48 1012.37 1012.42 1012.60 1012.89 1013.26 1013.66 1014.07 1014.49 1014.91 1015.33 1015.77 1016.23 1016.71 1017.23 1017.77 1018.32 1018.87 1019.39 1019.87 1020.30 1020.66 1020.96 1021.21 1021.43 1021.63 1021.82 1022.01 1022.20 1022.39 1022.56 1022.70 1022.78 1022.81 1022.76
1017.40 1016.94 1016.37 1015.72 1015.02 1014.33 1013.70 1013.16 1012.76 1012.51 1012.42 1012.47 1012.66 1012.94 1013.29 1013.68 1014.10 1014.52 1014.96 1015.40 1015.87 1016.36 1016.88 1017.43 1018.00 1018.56 1019.11 1019.62 1020.08 1020.47 1020.80 1021.07 1021.29 1021.48 1021.67 1021.85 1022.05 1022.26 1022.46 1022.65 1022.80 1022.90 1022.93 1022.88
1017.04 1016.58 1016.03 1015.43 1014.79 1014.18 1013.62 1013.15 1012.81 1012.60 1012.54 1012.60 1012.79 1013.07 1013.41 1013.81 1014.23 1014.67 1015.13 1015.61 1016.11 1016.63 1017.18 1017.75 1018.32 1018.88 1019.41 1019.89 1020.30 1020.66 1020.94 1021.18 1021.37 1021.55 1021.72 1021.90 1022.09 1022.30 1022.50 1022.68 1022.81 1022.90 1022.91 1022.84
1016.52 1016.08 1015.57 1015.04 1014.49 1013.97 1013.51 1013.13 1012.87 1012.72 1012.69 1012.79 1012.99 1013.28 1013.63 1014.04 1014.48 1014.95 1015.44 1015.96 1016.49 1017.05 1017.61 1018.18 1018.73 1019.26 1019.75 1020.19 1020.56 1020.86 1021.11 1021.32 1021.49 1021.66 1021.82 1021.99 1022.17 1022.36 1022.54 1022.69 1022.79 1022.83 1022.81 1022.72
1015.96 1015.54 1015.09 1014.62 1014.17 1013.76 1013.40 1013.12 1012.94 1012.86 1012.89 1013.02 1013.25 1013.57 1013.95 1014.38 1014.86 1015.36 1015.89 1016.44 1017.00 1017.56 1018.13 1018.67 1019.20 1019.68 1020.12 1020.50 1020.82 1021.08 1021.30 1021.49 1021.65 1021.81 1021.98 1022.14 1022.31 1022.47 1022.62 1022.72 1022.77 1022.76 1022.69 1022.55
1015.51 1015.11 1014.70 1014.31 1013.94 1013.62 1013.36 1013.17 1013.07 1013.06 1013.15 1013.33 1013.60 1013.94 1014.35 1014.82 1015.33 1015.87 1016.43 1017.00 1017.57 1018.13 1018.67 1019.18 1019.65 1020.08 1020.45 1020.77 1021.05 1021.28 1021.48 1021.66 1021.83 1022.00 1022.17 1022.34 1022.50 1022.64 1022.74 1022.79 1022.78 1022.71 1022.58 1022.40
1015.30 1014.91 1014.55 1014.20 1013.91 1013.66 1013.47 1013.36 1013.33 1013.37 1013.51 1013.72 1014.03 1014.40 1014.84 1015.34 1015.87 1016.43 1017.00 1017.57 1018.13 1018.67 1019.16 1019.62 1020.03 1020.39 1020.70 1020.97 1021.20 1021.41 1021.61 1021.80 1021.99 1022.18 1022.36 1022.54 1022.69 1022.80 1022.87 1022.87 1022.80 1022.67 1022.48 1022.25
1015.39 1015.02 1014.68 1014.38 1014.13 1013.94 1013.81 1013.74 1013.75 1013.84 1014.00 1014.24 1014.56 1014.95 1015.40 1015.90 1016.43 1016.99 1017.55 1018.10 1018.62 1019.11 1019.55 1019.94 1020.27 1020.56 1020.82 1021.04 1021.24 1021.44 1021.64 1021.85 1022.06 1022.28 1022.49 1022.67 1022.82 1022.92 1022.94 1022.89 1022.77 1022.58 1022.34 1022.07
1015.79 1015.44 1015.12 1014.86 1014.64 1014.48 1014.38 1014.34 1014.37 1014.47 1014.64 1014.88 1015.19 1015.56 1016.00 1016.48 1016.99 1017.51 1018.03 1018.53 1018.99 1019.41 1019.78 1020.09 1020.35 1020.58 1020.78 1020.96 1021.14 1021.33 1021.54 1021.77 1022.01 1022.26 1022.48 1022.68 1022.82 1022.89 1022.88 1022.79 1022.62 1022.39 1022.11 1021.80
1016.43 1016.11 1015.82 1015.58 1015.39 1015.25 1015.17 1015.14 1015.17 1015.25 1015.41 1015.62 1015.90 1016.23 1016.62 1017.05 1017.50 1017.96 1018.41 1018.83 1019.22 1019.56 1019.84 1020.08 1020.27 1020.43 1020.58 1020.73 1020.90 1021.09 1021.30 1021.54 1021.80 1022.06 1022.29 1022.48 1022.60 1022.65 1022.61 1022.48 1022.28 1022.01 1021.70 1021.37
1017.21 1016.93 1016.68 1016.47 1016.31 1016.19 1016.11 1016.07 1016.09 1016.15 1016.26 1016.43 1016.65 1016.92 1017.23 1017.58 1017.94 1018.32 1018.68 1019.01 1019.30 1019.55 1019.76 1019.92 1020.05 1020.16 1020.26 1020.38 1020.53 1020.71 1020.92 1021.16 1021.42 1021.66 1021.88 1022.05 1022.14 1022.15 1022.08 1021.91 1021.68 1021.38 1021.06 1020.73
1018.00 1017.77 1017.58 1017.41 1017.27 1017.17 1017.10 1017.06 1017.05 1017.07 1017.13 1017.24 1017.38 1017.57 1017.79 1018.04 1018.30 1018.57 1018.83 1019.06 1019.26 1019.43 1019.55 1019.65 1019.72 1019.78 1019.86 1019.95 1020.07 1020.23 1020.43 1020.64 1020.87 1021.08 1021.26 1021.38 1021.43 1021.39 1021.27 1021.07 1020.81 1020.50 1020.18 1019.85
1018.70 1018.54 1018.40 1018.28 1018.18 1018.09 1018.03 1017.97 1017.94 1017.92 1017.93 1017.97 1018.03 1018.12 1018.24 1018.39 1018.54 1018.71 1018.86 1019.00 1019.12 1019.21 1019.27 1019.31 1019.34 1019.37 1019.41 1019.47 1019.57 1019.69 1019.85 1020.02 1020.19 1020.34 1020.45 1020.51 1020.49 1020.40 1020.23 1020.00 1019.71 1019.39 1019.07 1018.76
1019.26 1019.16 1019.07 1018.99 1018.92 1018.86 1018.80 1018.74 1018.68 1018.62 1018.57 1018.54 1018.52 1018.52 1018.54 1018.59 1018.64 1018.71 1018.78 1018.84 1018.89 1018.92 1018.93 1018.93 1018.93 1018.94 1018.95 1018.99 1019.05 1019.13 1019.23 1019.33 1019.43 1019.50 1019.53 1019.50 1019.41 1019.25 1019.04 1018.77 1018.46 1018.15 1017.83 1017.54
1019.66 1019.61 1019.56 1019.51 1019.47 1019.42 1019.35 1019.28 1019.19 1019.09 1018.99 1018.89 1018.80 1018.72 1018.66 1018.61 1018.59 1018.58 1018.57 1018.57 1018.57 1018.57 1018.55 1018.54 1018.52 1018.51 1018.50 1018.51 1018.53 1018.56 1018.60 1018.63 1018.64 1018.62 1018.56 1018.44 1018.28 1018.06 1017.79 1017.49 1017.17 1016.86 1016.55 1016.28
1019.92 1019.89 1019.86 1019.83 1019.79 1019.74 1019.66 1019.57 1019.45 1019.31 1019.16 1019.00 1018.84 1018.70 1018.57 1018.46 1018.37 1018.30 1018.26 1018.22 1018.19 1018.17 1018.15 1018.13 1018.10 1018.08 1018.06 1018.05 1018.03 1018.01 1017.98 1017.93 1017.86 1017.75 1017.60 1017.41 1017.17 1016.90 1016.59 1016.27 1015.94 1015.63 1015.33 1015.07
1020.06 1020.03 1020.00 1019.96 1019.91 1019.84 1019.74 1019.61 1019.46 1019.28 1019.08 1018.87 1018.67 1018.47 1018.29 1018.14 1018.02 1017.92 1017.85 1017.79 1017.76 1017.74 1017.72 1017.70 1017.68 1017.66 1017.63 1017.59 1017.54 1017.47 1017.38 1017.26 1017.11 1016.93 1016.71 1016.45 1016.16 1015.84 1015.50 1015.17 1014.84 1014.52 1014.24 1013.98
1020.11 1020.06 1020.01 1019.94 1019.86 1019.75 1019.62 1019.45 1019.26 1019.04 1018.80 1018.56 1018.32 1018.09 1017.89 1017.71 1017.57 1017.46 1017.39 1017.34 1017.31 1017.29 1017.28 1017.27 1017.26 1017.23 1017.19 1017.13 1017.05 1016.93 1016.79 1016.62 1016.40 1016.16 1015.88 1015.57 1015.24 1014.90 1014.55 1014.20 1013.87 1013.56 1013.27 1013.01
1020.08 1019.99 1019.90 1019.80 1019.68 1019.53 1019.35 1019.15 1018.92 1018.67 1018.40 1018.14 1017.88 1017.64 1017.43 1017.25 1017.11 1017.01 1016.94 1016.90 1016.88 1016.87 1016.87 1016.87 1016.85 1016.81 1016.76 1016.67 1016.55 1016.39 1016.20 1015.98 1015.72 1015.43 1015.11 1014.76 1014.41 1014.04 1013.68 1013.33 1013.00 1012.69 1012.39 1012.12
1019.96 1019.84 1019.71 1019.56 1019.40 1019.21 1019.00 1018.76 1018.50 1018.23 1017.96 1017.69 1017.44 1017.20 1017.00 1016.84 1016.71 1016.62 1016.56 1016.53 1016.52 1016.51 1016.51 1016.50 1016.47 1016.41 1016.32 1016.20 1016.04 1015.84 1015.60 1015.33 1015.03 1014.69 1014.34 1013.97 1013.59 1013.21 1012.84 1012.48 1012.14 1011.81 1011.51 1011.21
1019.74 1019.59 1019.42 1019.24 1019.05 1018.83 1018.60 1018.35 1018.09 1017.82 1017.55 1017.30 1017.07 1016.86 1016.68 1016.54 1016.44 1016.36 1016.32 1016.29 1016.28 1016.26 1016.24 1016.20 1016.13 1016.03 1015.90 1015.72 1015.51 1015.25 1014.96 1014.64 1014.29 1013.91 1013.52 1013.11 1012.71 1012.31 1011.92 1011.54 1011.18 1010.83 1010.50 1010.18
Thickness
5694 5701 5702 5702 5701 5698 5695 5691 5685 5691 5692 5701 5704 5706 5706 5706 5704 5702 5701 5700 5699 5697 5696 5696 5695 5695 5694 5693 5692 5692 5690 5688 5687 5687 5686 5685 5684 5683 5682 5681 5680 5678 5677 5676
5694 5700 5700 5699 5702 5700 5698 5696 5693 5694 5694 5707 5707 5706 5704 5703 5702 5700 5699 5698 5698 5696 5695 5693 5692 5691 5690 5689 5688 5687 5685 5684 5683 5682 5681 5680 5679 5678 5677 5675 5674 5673 5672 5671
5681 5692 5697 5688 5700 5700 5700 5702 5699 5694 5700 5704 5702 5704 5704 5702 5701 5700 5698 5697 5695 5694 5692 5690 5689 5688 5686 5685 5683 5682 5680 5679 5678 5678 5676 5675 5674 5672 5671 5669 5668 5667 5666 5665
5674 5684 5676 5695 5710 5709 5704 5704 5706 5707 5707 5705 5706 5705 5704 5704 5702 5699 5697 5695 5693 5691 5689 5687 5686 5684 5683 5680 5678 5676 5674 5673 5673 5672 5670 5669 5668 5666 5665 5663 5662 5661 5660 5659
5665 5668 5677 5696 5707 5706 5702 5700 5708 5706 5705 5702 5702 5699 5696 5701 5701 5699 5697 5694 5691 5689 5686 5683 5681 5679 5677 5674 5672 5670 5668 5667 5667 5666 5664 5663 5661 5660 5658 5656 5655 5653 5653 5652
5662 5666 5669 5694 5710 5713 5707 5695 5708 5707 5704 5700 5699 5687 5690 5698 5698 5695 5693 5690 5687 5684 5681 5677 5675 5673 5670 5666 5664 5663 5662 5661 5661 5659 5658 5656 5654 5652 5650 5649 5647 5646 5645 5644
5661 5664 5675 5699 5707 5709 5690 5696 5710 5708 5705 5701 5698 5699 5699 5697 5694 5691 5688 5685 5682 5679 5675 5672 5669 5666 5662 5659 5657 5657 5656 5655 5653 5652 5650 5648 5646 5644 5642 5640 5639 5637 5636 5635
5658 5661 5674 5701 5701 5698 5701 5711 5709 5706 5704 5700 5697 5696 5694 5692 5688 5685 5681 5678 5676 5672 5668 5665 5663 5660 5656 5652 5651 5650 5648 5646 5644 5643 5641 5640 5637 5635 5632 5630 5628 5626 5625 5625
5673 5678 5691 5696 5700 5706 5706 5704 5704 5703 5700 5697 5692 5689 5687 5683 5680 5678 5675 5671 5668 5664 5660 5656 5654 5653 5649 5646 5644 5642 5639 5636 5634 5633 5631 5629 5627 5624 5622 5619 5617 5616 5614 5613
5671 5680 5688 5691 5696 5700 5702 5702 5702 5700 5697 5694 5688 5683 5679 5676 5672 5669 5666 5663 5660 5656 5652 5648 5646 5644 5641 5639 5636 5633 5629 5626 5624 5622 5620 5619 5617 5614 5611 5609 5606 5605 5604 5603
5669 5677 5682 5688 5690 5693 5695 5695 5694 5692 5690 5687 5682 5676 5672 5668 5664 5661 5657 5654 5651 5648 5644 5640 5637 5635 5633 5630 5627 5623 5619 5617 5614 5611 5609 5607 5605 5603 5601 5599 5596 5594 5593 5591
5670 5678 5677 5680 5686 5688 5687 5686 5685 5683 5678 5676 5675 5669 5664 5659 5655 5651 5647 5644 5641 5637 5634 5631 5628 5625 5623 5620 5617 5613 5609 5605 5602 5600 5597 5594 5592 5591 5591 5588 5588 5586 5584 5581
5675 5677 5676 5678 5679 5680 5679 5678 5677 5676 5672 5667 5663 5660 5655 5649 5644 5641 5637 5634 5631 5628 5624 5621 5618 5615 5613 5610 5607 5603 5598 5595 5591 5588 5586 5583 5580 5577 5576 5577 5576 5574 5571 5569
5670 5670 5668 5669 5669 5671 5670 5669 5667 5664 5661 5658 5653 5649 5644 5639 5634 5631 5627 5624 5621 5618 5614 5611 5608 5605 5602 5599 5596 5592 5588 5585 5581 5577 5574 5571 5568 5565 5562 5561 5560 5560 5558 5556
5663 5664 5663 5662 5661 5659 5659 5657 5654 5649 5646 5643 5641 5638 5634 5629 5624 5620 5617 5614 5610 5606 5603 5600 5597 5593 5591 5588 5584 5580 5576 5572 5569 5565 5562 5558 5555 5552 5549 5547 5545 5544 5543 5542
5653 5653 5653 5651 5650 5648 5647 5646 5643 5638 5635 5633 5629 5626 5622 5618 5613 5609 5605 5602 5598 5594 5591 5588 5585 5583 5580 5576 5572 5568 5564 5563 5559 5554 5549 5546 5542 5539 5536 5533 5531 5529 5527 5526
5643 5640 5640 5639 5639 5638 5637 5636 5634 5630 5626 5622 5618 5615 5610 5605 5600 5596 5593 5590 5587 5583 5580 5577 5574 5571 5568 5564 5560 5556 5552 5549 5547 5542 5536 5533 5529 5526 5523 5520 5517 5515 5514 5513
5640 5640 5638 5636 5633 5629 5627 5625 5622 5619 5615 5612 5607 5603 5598 5594 5589 5584 5581 5577 5574 5570 5567 5565 5562 5559 5556 5552 5547 5543 5539 5535 5531 5527 5523 5520 5516 5513 5510 5507 5504 5502 5501 5500
5628 5627 5626 5625 5623 5620 5617 5613 5611 5607 5604 5600 5595 5590 5586 5581 5577 5572 5568 5564 5560 5557 5555 5553 5551 5546 5542 5539 5536 5530 5526 5521 5517 5514 5510 5508 5504 5500 5497 5494 5491 5489 5487 5486
5617 5616 5615 5613 5611 5608 5605 5602 5599 5595 5591 5587 5582 5577 5572 5567 5564 5559 5555 5551 5548 5546 5544 5541 5537 5533 5530 5526 5523 5517 5513 5508 5504 5501 5497 5494 5490 5488 5485 5482 5480 5478 5475 5473
5606 5605 5603 5601 5598 5596 5594 5590 5587 5582 5578 5574 5570 5565 5560 5555 5551 5547 5542 5539 5538 5535 5532 5529 5525 5521 5517 5514 5511 5505 5500 5496 5492 5488 5485 5482 5479 5476 5473 5471 5468 5466 5464 5462
5593 5592 5590 5588 5585 5581 5579 5576 5573 5569 5565 5560 5557 5552 5547 5542 5538 5534 5531 5528 5527 5524 5520 5516 5512 5509 5506 5503 5498 5493 5489 5485 5481 5477 5473 5470 5467 5465 5463 5460 5457 5455 5453 5450
5579 5578 5576 5574 5571 5567 5564 5561 5559 5556 5552 5548 5543 5539 5535 5531 5527 5522 5519 5517 5515 5512 5508 5504 5501 5499 5496 5491 5486 5481 5477 5473 5469 5466 5462 5459 5457 5454 5451 5449 5447 5445 5442 5440
5565 5563 5562 5559 5557 5553 5549 5547 5544 5541 5538 5535 5531 5528 5524 5519 5515 5512 5510 5508 5504 5501 5496 5492 5490 5487 5484 5478 5474 5469 5465 5462 5458 5455 5452 5449 5446 5443 5441 5438 5436 5435 5433 5431
5551 5549 5547 5545 5543 5540 5537 5533 5530 5526 5523 5520 5518 5515 5512 5508 5504 5501 5497 5494 5492 5488 5484 5481 5479 5475 5470 5466 5461 5458 5454 5451 5448 5445 5442 5439 5436 5434 5431 5429 5426 5425 5423 5422
5538 5536 5535 5533 5531 5527 5524 5521 5517 5513 5510 5507 5504 5501 5498 5495 5492 5488 5485 5482 5479 5476 5472 5468 5465 5462 5458 5454 5451 5448 5444 5441 5438 5435 5431 5429 5427 5424 5422 5420 5418 5416 5415 5413
5525 5523 5520 5518 5516 5514 5512 5509 5505 5502 5499 5497 5493 5490 5486 5483 5480 5476 5473 5470 5466 5463 5460 5457 5454 5450 5447 5444 5440 5437 5434 5431 5428 5425 5423 5421 5418 5416 5414 5412 5410 5409 5407 5406